Year,Month,Day,Hour,Minute,Value (Times are PST for temperature in C)
2022,10,15,00,00,12.30
2022,10,15,00,01,12.30
2022,10,15,00,02,12.20
2022,10,15,00,03,12.20
2022,10,15,00,04,12.20
2022,10,15,00,05,12.10
2022,10,15,00,06,12.10
2022,10,15,00,07,12.10
2022,10,15,00,08,12.00
2022,10,15,00,09,12.00
2022,10,15,00,10,11.90
2022,10,15,00,11,11.90
2022,10,15,00,12,11.90
2022,10,15,00,13,11.90
2022,10,15,00,14,11.80
2022,10,15,00,15,11.80
2022,10,15,00,16,11.80
2022,10,15,00,17,11.80
2022,10,15,00,18,11.80
2022,10,15,00,19,11.80
2022,10,15,00,20,11.80
2022,10,15,00,21,11.80
2022,10,15,00,22,11.80
2022,10,15,00,23,11.80
2022,10,15,00,24,11.90
2022,10,15,00,25,11.90
2022,10,15,00,26,12.00
2022,10,15,00,27,12.00
2022,10,15,00,28,12.10
2022,10,15,00,29,12.10
2022,10,15,00,30,12.10
2022,10,15,00,31,12.10
2022,10,15,00,32,12.10
2022,10,15,00,33,12.10
2022,10,15,00,34,12.10
2022,10,15,00,35,12.00
2022,10,15,00,36,12.00
2022,10,15,00,37,11.90
2022,10,15,00,38,11.90
2022,10,15,00,39,11.90
2022,10,15,00,40,11.90
2022,10,15,00,41,11.80
2022,10,15,00,42,11.80
2022,10,15,00,43,11.80
2022,10,15,00,44,11.80
2022,10,15,00,45,11.80
2022,10,15,00,46,11.80
2022,10,15,00,47,11.80
2022,10,15,00,48,11.80
2022,10,15,00,49,11.80
2022,10,15,00,50,11.80
2022,10,15,00,51,11.80
2022,10,15,00,52,11.90
2022,10,15,00,53,11.90
2022,10,15,00,54,12.00
2022,10,15,00,55,12.00
2022,10,15,00,56,12.10
2022,10,15,00,57,12.10
2022,10,15,00,58,12.10
2022,10,15,00,59,12.10
2022,10,15,01,00,12.10
2022,10,15,01,01,12.10
2022,10,15,01,02,12.10
2022,10,15,01,03,12.10
2022,10,15,01,04,12.00
2022,10,15,01,05,12.00
2022,10,15,01,06,12.00
2022,10,15,01,07,12.00
2022,10,15,01,08,12.00
2022,10,15,01,09,12.00
2022,10,15,01,10,12.00
2022,10,15,01,11,12.00
2022,10,15,01,12,12.10
2022,10,15,01,13,12.10
2022,10,15,01,14,12.10
2022,10,15,01,15,12.10
2022,10,15,01,16,12.20
2022,10,15,01,17,12.20
2022,10,15,01,18,12.20
2022,10,15,01,19,12.30
2022,10,15,01,20,12.30
2022,10,15,01,21,12.30
2022,10,15,01,22,12.20
2022,10,15,01,23,12.20
2022,10,15,01,24,12.20
2022,10,15,01,25,12.20
2022,10,15,01,26,12.20
2022,10,15,01,27,12.20
2022,10,15,01,28,12.10
2022,10,15,01,29,12.10
2022,10,15,01,30,12.10
2022,10,15,01,31,12.20
2022,10,15,01,32,12.20
2022,10,15,01,33,12.20
2022,10,15,01,34,12.20
2022,10,15,01,35,12.30
2022,10,15,01,36,12.30
2022,10,15,01,37,12.30
2022,10,15,01,38,12.40
2022,10,15,01,39,12.40
2022,10,15,01,40,12.40
2022,10,15,01,41,12.30
2022,10,15,01,42,12.30
2022,10,15,01,43,12.30
2022,10,15,01,44,12.20
2022,10,15,01,45,12.20
2022,10,15,01,46,12.20
2022,10,15,01,47,12.10
2022,10,15,01,48,12.10
2022,10,15,01,49,12.00
2022,10,15,01,50,12.00
2022,10,15,01,51,11.90
2022,10,15,01,52,11.90
2022,10,15,01,53,11.80
2022,10,15,01,54,11.80
2022,10,15,01,55,11.80
2022,10,15,01,56,11.80
2022,10,15,01,57,11.80
2022,10,15,01,58,11.80
2022,10,15,01,59,11.80
2022,10,15,02,00,11.80
2022,10,15,02,01,11.80
2022,10,15,02,02,11.80
2022,10,15,02,03,11.80
2022,10,15,02,04,11.80
2022,10,15,02,05,11.70
2022,10,15,02,06,11.70
2022,10,15,02,07,11.70
2022,10,15,02,08,11.70
2022,10,15,02,09,11.70
2022,10,15,02,10,11.70
2022,10,15,02,11,11.70
2022,10,15,02,12,11.70
2022,10,15,02,13,11.70
2022,10,15,02,14,11.70
2022,10,15,02,15,11.70
2022,10,15,02,16,11.70
2022,10,15,02,17,11.70
2022,10,15,02,18,11.70
2022,10,15,02,19,11.80
2022,10,15,02,20,11.80
2022,10,15,02,21,11.80
2022,10,15,02,22,11.80
2022,10,15,02,23,11.80
2022,10,15,02,24,11.80
2022,10,15,02,25,11.80
2022,10,15,02,26,11.80
2022,10,15,02,27,11.80
2022,10,15,02,28,11.80
2022,10,15,02,29,11.80
2022,10,15,02,30,11.80
2022,10,15,02,31,11.70
2022,10,15,02,32,11.80
2022,10,15,02,33,11.80
2022,10,15,02,34,11.80
2022,10,15,02,35,11.80
2022,10,15,02,36,11.80
2022,10,15,02,37,11.80
2022,10,15,02,38,11.80
2022,10,15,02,39,11.90
2022,10,15,02,40,11.90
2022,10,15,02,41,11.90
2022,10,15,02,42,11.90
2022,10,15,02,43,11.80
2022,10,15,02,44,11.80
2022,10,15,02,45,11.80
2022,10,15,02,46,11.80
2022,10,15,02,47,11.80
2022,10,15,02,48,11.80
2022,10,15,02,49,11.80
2022,10,15,02,50,11.80
2022,10,15,02,51,11.80
2022,10,15,02,52,11.70
2022,10,15,02,53,11.70
2022,10,15,02,54,11.70
2022,10,15,02,55,11.60
2022,10,15,02,56,11.60
2022,10,15,02,57,11.50
2022,10,15,02,58,11.50
2022,10,15,02,59,11.50
2022,10,15,03,00,11.40
2022,10,15,03,01,11.40
2022,10,15,03,02,11.50
2022,10,15,03,03,11.50
2022,10,15,03,04,11.50
2022,10,15,03,05,11.50
2022,10,15,03,06,11.50
2022,10,15,03,07,11.50
2022,10,15,03,08,11.50
2022,10,15,03,09,11.40
2022,10,15,03,10,11.30
2022,10,15,03,11,11.30
2022,10,15,03,12,11.30
2022,10,15,03,13,11.30
2022,10,15,03,14,11.20
2022,10,15,03,15,11.20
2022,10,15,03,16,11.20
2022,10,15,03,17,11.20
2022,10,15,03,18,11.20
2022,10,15,03,19,11.20
2022,10,15,03,20,11.20
2022,10,15,03,21,11.20
2022,10,15,03,22,11.30
2022,10,15,03,23,11.30
2022,10,15,03,24,11.30
2022,10,15,03,25,11.30
2022,10,15,03,26,11.40
2022,10,15,03,27,11.50
2022,10,15,03,28,11.50
2022,10,15,03,29,11.50
2022,10,15,03,30,11.60
2022,10,15,03,31,11.60
2022,10,15,03,32,11.60
2022,10,15,03,33,11.60
2022,10,15,03,34,11.60
2022,10,15,03,35,11.60
2022,10,15,03,36,11.50
2022,10,15,03,37,11.50
2022,10,15,03,38,11.50
2022,10,15,03,39,11.40
2022,10,15,03,40,11.40
2022,10,15,03,41,11.30
2022,10,15,03,42,11.30
2022,10,15,03,43,11.30
2022,10,15,03,44,11.30
2022,10,15,03,45,11.30
2022,10,15,03,46,11.30
2022,10,15,03,47,11.30
2022,10,15,03,48,11.30
2022,10,15,03,49,11.40
2022,10,15,03,50,11.40
2022,10,15,03,51,11.40
2022,10,15,03,52,11.40
2022,10,15,03,53,11.30
2022,10,15,03,54,11.30
2022,10,15,03,55,11.30
2022,10,15,03,56,11.20
2022,10,15,03,57,11.20
2022,10,15,03,58,11.20
2022,10,15,03,59,11.10
2022,10,15,04,00,11.10
2022,10,15,04,01,11.10
2022,10,15,04,02,11.00
2022,10,15,04,03,11.00
2022,10,15,04,04,11.00
2022,10,15,04,05,11.00
2022,10,15,04,06,11.00
2022,10,15,04,07,11.00
2022,10,15,04,08,11.00
2022,10,15,04,09,11.00
2022,10,15,04,10,10.90
2022,10,15,04,11,10.90
2022,10,15,04,12,10.90
2022,10,15,04,13,10.90
2022,10,15,04,14,10.90
2022,10,15,04,15,10.80
2022,10,15,04,16,10.80
2022,10,15,04,17,10.80
2022,10,15,04,18,10.80
2022,10,15,04,19,10.80
2022,10,15,04,20,10.90
2022,10,15,04,21,10.90
2022,10,15,04,22,11.00
2022,10,15,04,23,11.00
2022,10,15,04,24,11.00
2022,10,15,04,25,11.00
2022,10,15,04,26,10.90
2022,10,15,04,27,10.90
2022,10,15,04,28,10.90
2022,10,15,04,29,10.90
2022,10,15,04,30,10.90
2022,10,15,04,31,10.90
2022,10,15,04,32,10.90
2022,10,15,04,33,10.80
2022,10,15,04,34,10.80
2022,10,15,04,35,10.80
2022,10,15,04,36,10.80
2022,10,15,04,37,10.90
2022,10,15,04,38,10.90
2022,10,15,04,39,10.90
2022,10,15,04,40,11.00
2022,10,15,04,41,11.10
2022,10,15,04,42,11.10
2022,10,15,04,43,11.10
2022,10,15,04,44,11.20
2022,10,15,04,45,11.20
2022,10,15,04,46,11.20
2022,10,15,04,47,11.20
2022,10,15,04,48,11.20
2022,10,15,04,49,11.30
2022,10,15,04,50,11.30
2022,10,15,04,51,11.20
2022,10,15,04,52,11.20
2022,10,15,04,53,11.20
2022,10,15,04,54,11.10
2022,10,15,04,55,11.10
2022,10,15,04,56,11.10
2022,10,15,04,57,11.00
2022,10,15,04,58,11.00
2022,10,15,04,59,11.00
2022,10,15,05,00,11.00
2022,10,15,05,01,10.90
2022,10,15,05,02,10.90
2022,10,15,05,03,10.90
2022,10,15,05,04,10.90
2022,10,15,05,05,11.00
2022,10,15,05,06,10.90
2022,10,15,05,07,11.00
2022,10,15,05,08,11.00
2022,10,15,05,09,11.00
2022,10,15,05,10,11.00
2022,10,15,05,11,11.00
2022,10,15,05,12,11.00
2022,10,15,05,13,11.00
2022,10,15,05,14,11.00
2022,10,15,05,15,11.00
2022,10,15,05,16,11.00
2022,10,15,05,17,11.00
2022,10,15,05,18,11.00
2022,10,15,05,19,11.00
2022,10,15,05,20,11.00
2022,10,15,05,21,11.00
2022,10,15,05,22,11.10
2022,10,15,05,23,11.10
2022,10,15,05,24,11.10
2022,10,15,05,25,11.10
2022,10,15,05,26,11.20
2022,10,15,05,27,11.20
2022,10,15,05,28,11.20
2022,10,15,05,29,11.20
2022,10,15,05,30,11.30
2022,10,15,05,31,11.30
2022,10,15,05,32,11.30
2022,10,15,05,33,11.40
2022,10,15,05,34,11.40
2022,10,15,05,35,11.40
2022,10,15,05,36,11.50
2022,10,15,05,37,11.50
2022,10,15,05,38,11.60
2022,10,15,05,39,11.60
2022,10,15,05,40,11.60
2022,10,15,05,41,11.60
2022,10,15,05,42,11.70
2022,10,15,05,43,11.70
2022,10,15,05,44,11.80
2022,10,15,05,45,11.80
2022,10,15,05,46,11.80
2022,10,15,05,47,11.80
2022,10,15,05,48,11.80
2022,10,15,05,49,11.80
2022,10,15,05,50,11.80
2022,10,15,05,51,11.80
2022,10,15,05,52,11.80
2022,10,15,05,53,11.80
2022,10,15,05,54,11.70
2022,10,15,05,55,11.70
2022,10,15,05,56,11.70
2022,10,15,05,57,11.60
2022,10,15,05,58,11.60
2022,10,15,05,59,11.60
2022,10,15,06,00,11.60
2022,10,15,06,01,11.50
2022,10,15,06,02,11.50
2022,10,15,06,03,11.50
2022,10,15,06,04,11.50
2022,10,15,06,05,11.50
2022,10,15,06,06,11.50
2022,10,15,06,07,11.50
2022,10,15,06,08,11.60
2022,10,15,06,09,11.70
2022,10,15,06,10,11.80
2022,10,15,06,11,11.80
2022,10,15,06,12,11.90
2022,10,15,06,13,12.00
2022,10,15,06,14,12.10
2022,10,15,06,15,12.10
2022,10,15,06,16,12.20
2022,10,15,06,17,12.20
2022,10,15,06,18,12.30
2022,10,15,06,19,12.30
2022,10,15,06,20,12.30
2022,10,15,06,21,12.40
2022,10,15,06,22,12.40
2022,10,15,06,23,12.50
2022,10,15,06,24,12.50
2022,10,15,06,25,12.50
2022,10,15,06,26,12.50
2022,10,15,06,27,12.50
2022,10,15,06,28,12.50
2022,10,15,06,29,12.50
2022,10,15,06,30,12.50
2022,10,15,06,31,12.50
2022,10,15,06,32,12.50
2022,10,15,06,33,12.50
2022,10,15,06,34,12.50
2022,10,15,06,35,12.40
2022,10,15,06,36,12.40
2022,10,15,06,37,12.40
2022,10,15,06,38,12.30
2022,10,15,06,39,12.30
2022,10,15,06,40,12.20
2022,10,15,06,41,12.10
2022,10,15,06,42,11.90
2022,10,15,06,43,11.80
2022,10,15,06,44,11.60
2022,10,15,06,45,11.50
2022,10,15,06,46,11.40
2022,10,15,06,47,11.30
2022,10,15,06,48,11.20
2022,10,15,06,49,11.20
2022,10,15,06,50,11.10
2022,10,15,06,51,11.00
2022,10,15,06,52,10.90
2022,10,15,06,53,10.90
2022,10,15,06,54,10.80
2022,10,15,06,55,10.80
2022,10,15,06,56,10.80
2022,10,15,06,57,10.70
2022,10,15,06,58,10.70
2022,10,15,06,59,10.70
2022,10,15,07,00,10.70
2022,10,15,07,01,10.70
2022,10,15,07,02,10.60
2022,10,15,07,03,10.60
2022,10,15,07,04,10.60
2022,10,15,07,05,10.60
2022,10,15,07,06,10.60
2022,10,15,07,07,10.60
2022,10,15,07,08,10.60
2022,10,15,07,09,10.60
2022,10,15,07,10,10.60
2022,10,15,07,11,10.60
2022,10,15,07,12,10.60
2022,10,15,07,13,10.60
2022,10,15,07,14,10.60
2022,10,15,07,15,10.60
2022,10,15,07,16,10.60
2022,10,15,07,17,10.60
2022,10,15,07,18,10.70
2022,10,15,07,19,10.70
2022,10,15,07,20,10.70
2022,10,15,07,21,10.70
2022,10,15,07,22,10.70
2022,10,15,07,23,10.70
2022,10,15,07,24,10.70
2022,10,15,07,25,10.70
2022,10,15,07,26,10.70
2022,10,15,07,27,10.70
2022,10,15,07,28,10.80
2022,10,15,07,29,10.80
2022,10,15,07,30,10.80
2022,10,15,07,31,10.80
2022,10,15,07,32,10.80
2022,10,15,07,33,10.80
2022,10,15,07,34,10.80
2022,10,15,07,35,10.80
2022,10,15,07,36,10.80
2022,10,15,07,37,10.80
2022,10,15,07,38,10.80
2022,10,15,07,39,10.90
2022,10,15,07,40,10.90
2022,10,15,07,41,10.90
2022,10,15,07,42,10.90
2022,10,15,07,43,11.00
2022,10,15,07,44,11.10
2022,10,15,07,45,11.10
2022,10,15,07,46,11.20
2022,10,15,07,47,11.20
2022,10,15,07,48,11.30
2022,10,15,07,49,11.40
2022,10,15,07,50,11.40
2022,10,15,07,51,11.50
2022,10,15,07,52,11.60
2022,10,15,07,53,11.70
2022,10,15,07,54,11.70
2022,10,15,07,55,11.80
2022,10,15,07,56,11.80
2022,10,15,07,57,11.80
2022,10,15,07,58,11.80
2022,10,15,07,59,11.80
2022,10,15,08,00,11.80
2022,10,15,08,01,11.80
2022,10,15,08,02,11.80
2022,10,15,08,03,11.70
2022,10,15,08,04,11.70
2022,10,15,08,05,11.70
2022,10,15,08,06,11.70
2022,10,15,08,07,11.70
2022,10,15,08,08,11.60
2022,10,15,08,09,11.60
2022,10,15,08,10,11.60
2022,10,15,08,11,11.60
2022,10,15,08,12,11.60
2022,10,15,08,13,11.60
2022,10,15,08,14,11.60
2022,10,15,08,15,11.60
2022,10,15,08,16,11.50
2022,10,15,08,17,11.50
2022,10,15,08,18,11.50
2022,10,15,08,19,11.50
2022,10,15,08,20,11.50
2022,10,15,08,21,11.40
2022,10,15,08,22,11.40
2022,10,15,08,23,11.30
2022,10,15,08,24,11.30
2022,10,15,08,25,11.30
2022,10,15,08,26,11.30
2022,10,15,08,27,11.30
2022,10,15,08,28,11.30
2022,10,15,08,29,11.40
2022,10,15,08,30,11.40
2022,10,15,08,31,11.50
2022,10,15,08,32,11.60
2022,10,15,08,33,11.60
2022,10,15,08,34,11.60
2022,10,15,08,35,11.60
2022,10,15,08,36,11.60
2022,10,15,08,37,11.50
2022,10,15,08,38,11.50
2022,10,15,08,39,11.50
2022,10,15,08,40,11.60
2022,10,15,08,41,11.60
2022,10,15,08,42,11.60
2022,10,15,08,43,11.70
2022,10,15,08,44,11.70
2022,10,15,08,45,11.70
2022,10,15,08,46,11.80
2022,10,15,08,47,11.80
2022,10,15,08,48,11.90
2022,10,15,08,49,11.90
2022,10,15,08,50,11.90
2022,10,15,08,51,12.00
2022,10,15,08,52,12.00
2022,10,15,08,53,12.10
2022,10,15,08,54,12.10
2022,10,15,08,55,12.20
2022,10,15,08,56,12.20
2022,10,15,08,57,12.30
2022,10,15,08,58,12.40
2022,10,15,08,59,12.50
2022,10,15,09,00,12.50
2022,10,15,09,01,12.60
2022,10,15,09,02,12.70
2022,10,15,09,03,12.70
2022,10,15,09,04,12.80
2022,10,15,09,05,12.80
2022,10,15,09,06,12.90
2022,10,15,09,07,12.90
2022,10,15,09,08,12.90
2022,10,15,09,09,12.90
2022,10,15,09,10,12.90
2022,10,15,09,11,13.00
2022,10,15,09,12,13.00
2022,10,15,09,13,13.10
2022,10,15,09,14,13.10
2022,10,15,09,15,13.20
2022,10,15,09,16,13.20
2022,10,15,09,17,13.30
2022,10,15,09,18,13.30
2022,10,15,09,19,13.40
2022,10,15,09,20,13.40
2022,10,15,09,21,13.50
2022,10,15,09,22,13.50
2022,10,15,09,23,13.60
2022,10,15,09,24,13.60
2022,10,15,09,25,13.60
2022,10,15,09,26,13.60
2022,10,15,09,27,13.70
2022,10,15,09,28,13.70
2022,10,15,09,29,13.80
2022,10,15,09,30,13.90
2022,10,15,09,31,14.00
2022,10,15,09,32,14.10
2022,10,15,09,33,14.20
2022,10,15,09,34,14.20
2022,10,15,09,35,14.30
2022,10,15,09,36,14.40
2022,10,15,09,37,14.40
2022,10,15,09,38,14.50
2022,10,15,09,39,14.60
2022,10,15,09,40,14.60
2022,10,15,09,41,14.70
2022,10,15,09,42,14.70
2022,10,15,09,43,14.80
2022,10,15,09,44,14.90
2022,10,15,09,45,15.00
2022,10,15,09,46,15.00
2022,10,15,09,47,15.10
2022,10,15,09,48,15.20
2022,10,15,09,49,15.30
2022,10,15,09,50,15.30
2022,10,15,09,51,15.40
2022,10,15,09,52,15.50
2022,10,15,09,53,15.60
2022,10,15,09,54,15.60
2022,10,15,09,55,15.70
2022,10,15,09,56,15.80
2022,10,15,09,57,15.80
2022,10,15,09,58,15.90
2022,10,15,09,59,16.00
2022,10,15,10,00,16.00
2022,10,15,10,01,16.10
2022,10,15,10,02,16.10
2022,10,15,10,03,16.20
2022,10,15,10,04,16.30
2022,10,15,10,05,16.40
2022,10,15,10,06,16.50
2022,10,15,10,07,16.50
2022,10,15,10,08,16.60
2022,10,15,10,09,16.70
2022,10,15,10,10,16.80
2022,10,15,10,11,16.90
2022,10,15,10,12,17.00
2022,10,15,10,13,17.00
2022,10,15,10,14,17.10
2022,10,15,10,15,17.20
2022,10,15,10,16,17.30
2022,10,15,10,17,17.40
2022,10,15,10,18,17.50
2022,10,15,10,19,17.60
2022,10,15,10,20,17.70
2022,10,15,10,21,17.80
2022,10,15,10,22,17.90
2022,10,15,10,23,17.90
2022,10,15,10,24,18.00
2022,10,15,10,25,18.00
2022,10,15,10,26,18.10
2022,10,15,10,27,18.20
2022,10,15,10,28,18.20
2022,10,15,10,29,18.30
2022,10,15,10,30,18.30
2022,10,15,10,31,18.40
2022,10,15,10,32,18.50
2022,10,15,10,33,18.60
2022,10,15,10,34,18.70
2022,10,15,10,35,18.80
2022,10,15,10,36,18.90
2022,10,15,10,37,19.00
2022,10,15,10,38,19.10
2022,10,15,10,39,19.20
2022,10,15,10,40,19.30
2022,10,15,10,41,19.40
2022,10,15,10,42,19.40
2022,10,15,10,43,19.60
2022,10,15,10,44,19.70
2022,10,15,10,45,19.80
2022,10,15,10,46,19.80
2022,10,15,10,47,19.90
2022,10,15,10,48,20.00
2022,10,15,10,49,20.10
2022,10,15,10,50,20.10
2022,10,15,10,51,20.20
2022,10,15,10,52,20.20
2022,10,15,10,53,20.20
2022,10,15,10,54,20.30
2022,10,15,10,55,20.30
2022,10,15,10,56,20.30
2022,10,15,10,57,20.40
2022,10,15,10,58,20.40
2022,10,15,10,59,20.50
2022,10,15,11,00,20.70
2022,10,15,11,01,20.80
2022,10,15,11,02,20.80
2022,10,15,11,03,20.90
2022,10,15,11,04,21.00
2022,10,15,11,05,21.00
2022,10,15,11,06,21.10
2022,10,15,11,07,21.10
2022,10,15,11,08,21.20
2022,10,15,11,09,21.20
2022,10,15,11,10,21.30
2022,10,15,11,11,21.40
2022,10,15,11,12,21.40
2022,10,15,11,13,21.50
2022,10,15,11,14,21.50
2022,10,15,11,15,21.50
2022,10,15,11,16,21.50
2022,10,15,11,17,21.50
2022,10,15,11,18,21.60
2022,10,15,11,19,21.60
2022,10,15,11,20,21.60
2022,10,15,11,21,21.60
2022,10,15,11,22,21.60
2022,10,15,11,23,21.60
2022,10,15,11,24,21.70
2022,10,15,11,25,21.70
2022,10,15,11,26,21.70
2022,10,15,11,27,21.80
2022,10,15,11,28,21.80
2022,10,15,11,29,21.80
2022,10,15,11,30,21.90
2022,10,15,11,31,21.90
2022,10,15,11,32,22.00
2022,10,15,11,33,22.00
2022,10,15,11,34,22.10
2022,10,15,11,35,22.20
2022,10,15,11,36,22.20
2022,10,15,11,37,22.30
2022,10,15,11,38,22.30
2022,10,15,11,39,22.30
2022,10,15,11,40,22.30
2022,10,15,11,41,22.30
2022,10,15,11,42,22.40
2022,10,15,11,43,22.40
2022,10,15,11,44,22.40
2022,10,15,11,45,22.50
2022,10,15,11,46,22.50
2022,10,15,11,47,22.50
2022,10,15,11,48,22.40
2022,10,15,11,49,22.40
2022,10,15,11,50,22.40
2022,10,15,11,51,22.40
2022,10,15,11,52,22.40
2022,10,15,11,53,22.40
2022,10,15,11,54,22.40
2022,10,15,11,55,22.50
2022,10,15,11,56,22.50
2022,10,15,11,57,22.60
2022,10,15,11,58,22.60
2022,10,15,11,59,22.50
2022,10,15,12,00,22.50
2022,10,15,12,01,22.60
2022,10,15,12,02,22.60
2022,10,15,12,03,22.70
2022,10,15,12,04,22.70
2022,10,15,12,05,22.70
2022,10,15,12,06,22.70
2022,10,15,12,07,22.70
2022,10,15,12,08,22.70
2022,10,15,12,09,22.70
2022,10,15,12,10,22.70
2022,10,15,12,11,22.80
2022,10,15,12,12,22.80
2022,10,15,12,13,22.90
2022,10,15,12,14,22.90
2022,10,15,12,15,22.90
2022,10,15,12,16,22.90
2022,10,15,12,17,22.90
2022,10,15,12,18,23.00
2022,10,15,12,19,23.10
2022,10,15,12,20,23.10
2022,10,15,12,21,23.10
2022,10,15,12,22,23.20
2022,10,15,12,23,23.30
2022,10,15,12,24,23.40
2022,10,15,12,25,23.40
2022,10,15,12,26,23.40
2022,10,15,12,27,23.40
2022,10,15,12,28,23.40
2022,10,15,12,29,23.40
2022,10,15,12,30,23.40
2022,10,15,12,31,23.40
2022,10,15,12,32,23.30
2022,10,15,12,33,23.40
2022,10,15,12,34,23.40
2022,10,15,12,35,23.40
2022,10,15,12,36,23.40
2022,10,15,12,37,23.40
2022,10,15,12,38,23.40
2022,10,15,12,39,23.40
2022,10,15,12,40,23.40
2022,10,15,12,41,23.30
2022,10,15,12,42,23.30
2022,10,15,12,43,23.30
2022,10,15,12,44,23.40
2022,10,15,12,45,23.40
2022,10,15,12,46,23.40
2022,10,15,12,47,23.40
2022,10,15,12,48,23.30
2022,10,15,12,49,23.30
2022,10,15,12,50,23.30
2022,10,15,12,51,23.30
2022,10,15,12,52,23.20
2022,10,15,12,53,23.20
2022,10,15,12,54,23.20
2022,10,15,12,55,23.30
2022,10,15,12,56,23.30
2022,10,15,12,57,23.30
2022,10,15,12,58,23.30
2022,10,15,12,59,23.30
2022,10,15,13,00,23.40
2022,10,15,13,01,23.40
2022,10,15,13,02,23.40
2022,10,15,13,03,23.50
2022,10,15,13,04,23.40
2022,10,15,13,05,23.40
2022,10,15,13,06,23.40
2022,10,15,13,07,23.50
2022,10,15,13,08,23.50
2022,10,15,13,09,23.60
2022,10,15,13,10,23.70
2022,10,15,13,11,23.70
2022,10,15,13,12,23.80
2022,10,15,13,13,23.80
2022,10,15,13,14,23.80
2022,10,15,13,15,23.80
2022,10,15,13,16,23.80
2022,10,15,13,17,23.80
2022,10,15,13,18,23.90
2022,10,15,13,19,23.90
2022,10,15,13,20,23.90
2022,10,15,13,21,23.90
2022,10,15,13,22,23.90
2022,10,15,13,23,23.90
2022,10,15,13,24,23.90
2022,10,15,13,25,24.00
2022,10,15,13,26,24.00
2022,10,15,13,27,23.90
2022,10,15,13,28,23.90
2022,10,15,13,29,24.00
2022,10,15,13,30,24.00
2022,10,15,13,31,24.10
2022,10,15,13,32,24.10
2022,10,15,13,33,24.10
2022,10,15,13,34,24.10
2022,10,15,13,35,24.10
2022,10,15,13,36,24.10
2022,10,15,13,37,24.10
2022,10,15,13,38,24.10
2022,10,15,13,39,24.10
2022,10,15,13,40,24.20
2022,10,15,13,41,24.20
2022,10,15,13,42,24.20
2022,10,15,13,43,24.20
2022,10,15,13,44,24.30
2022,10,15,13,45,24.30
2022,10,15,13,46,24.20
2022,10,15,13,47,24.20
2022,10,15,13,48,24.20
2022,10,15,13,49,24.20
2022,10,15,13,50,24.20
2022,10,15,13,51,24.20
2022,10,15,13,52,24.20
2022,10,15,13,53,24.20
2022,10,15,13,54,24.20
2022,10,15,13,55,24.20
2022,10,15,13,56,24.20
2022,10,15,13,57,24.30
2022,10,15,13,58,24.30
2022,10,15,13,59,24.30
2022,10,15,14,00,24.30
2022,10,15,14,01,24.40
2022,10,15,14,02,24.40
2022,10,15,14,03,24.50
2022,10,15,14,04,24.60
2022,10,15,14,05,24.60
2022,10,15,14,06,24.70
2022,10,15,14,07,24.80
2022,10,15,14,08,24.80
2022,10,15,14,09,24.80
2022,10,15,14,10,24.80
2022,10,15,14,11,24.80
2022,10,15,14,12,24.80
2022,10,15,14,13,24.80
2022,10,15,14,14,24.80
2022,10,15,14,15,24.80
2022,10,15,14,16,24.80
2022,10,15,14,17,24.80
2022,10,15,14,18,24.70
2022,10,15,14,19,24.70
2022,10,15,14,20,24.70
2022,10,15,14,21,24.70
2022,10,15,14,22,24.70
2022,10,15,14,23,24.60
2022,10,15,14,24,24.60
2022,10,15,14,25,24.70
2022,10,15,14,26,24.70
2022,10,15,14,27,24.70
2022,10,15,14,28,24.70
2022,10,15,14,29,24.70
2022,10,15,14,30,24.70
2022,10,15,14,31,24.70
2022,10,15,14,32,24.70
2022,10,15,14,33,24.70
2022,10,15,14,34,24.80
2022,10,15,14,35,24.80
2022,10,15,14,36,24.90
2022,10,15,14,37,25.00
2022,10,15,14,38,25.10
2022,10,15,14,39,25.10
2022,10,15,14,40,25.10
2022,10,15,14,41,25.10
2022,10,15,14,42,25.10
2022,10,15,14,43,25.00
2022,10,15,14,44,24.90
2022,10,15,14,45,24.90
2022,10,15,14,46,24.80
2022,10,15,14,47,24.70
2022,10,15,14,48,24.60
2022,10,15,14,49,24.50
2022,10,15,14,50,24.50
2022,10,15,14,51,24.50
2022,10,15,14,52,24.50
2022,10,15,14,53,24.50
2022,10,15,14,54,24.60
2022,10,15,14,55,24.60
2022,10,15,14,56,24.60
2022,10,15,14,57,24.70
2022,10,15,14,58,24.70
2022,10,15,14,59,24.70
2022,10,15,15,00,24.60
2022,10,15,15,01,24.60
2022,10,15,15,02,24.60
2022,10,15,15,03,24.60
2022,10,15,15,04,24.60
2022,10,15,15,05,24.50
2022,10,15,15,06,24.50
2022,10,15,15,07,24.50
2022,10,15,15,08,24.60
2022,10,15,15,09,24.60
2022,10,15,15,10,24.60
2022,10,15,15,11,24.70
2022,10,15,15,12,24.70
2022,10,15,15,13,24.60
2022,10,15,15,14,24.60
2022,10,15,15,15,24.60
2022,10,15,15,16,24.60
2022,10,15,15,17,24.60
2022,10,15,15,18,24.60
2022,10,15,15,19,24.60
2022,10,15,15,20,24.60
2022,10,15,15,21,24.70
2022,10,15,15,22,24.70
2022,10,15,15,23,24.80
2022,10,15,15,24,24.80
2022,10,15,15,25,24.90
2022,10,15,15,26,25.00
2022,10,15,15,27,25.00
2022,10,15,15,28,25.00
2022,10,15,15,29,25.00
2022,10,15,15,30,24.90
2022,10,15,15,31,24.90
2022,10,15,15,32,24.90
2022,10,15,15,33,24.90
2022,10,15,15,34,24.80
2022,10,15,15,35,24.80
2022,10,15,15,36,24.70
2022,10,15,15,37,24.70
2022,10,15,15,38,24.70
2022,10,15,15,39,24.70
2022,10,15,15,40,24.70
2022,10,15,15,41,24.70
2022,10,15,15,42,24.70
2022,10,15,15,43,24.70
2022,10,15,15,44,24.70
2022,10,15,15,45,24.70
2022,10,15,15,46,24.70
2022,10,15,15,47,24.70
2022,10,15,15,48,24.70
2022,10,15,15,49,24.80
2022,10,15,15,50,24.80
2022,10,15,15,51,24.70
2022,10,15,15,52,24.60
2022,10,15,15,53,24.60
2022,10,15,15,54,24.50
2022,10,15,15,55,24.60
2022,10,15,15,56,24.60
2022,10,15,15,57,24.60
2022,10,15,15,58,24.60
2022,10,15,15,59,24.60
2022,10,15,16,00,24.70
2022,10,15,16,01,24.70
2022,10,15,16,02,24.70
2022,10,15,16,03,24.80
2022,10,15,16,04,24.80
2022,10,15,16,05,24.90
2022,10,15,16,06,24.90
2022,10,15,16,07,24.90
2022,10,15,16,08,24.80
2022,10,15,16,09,24.80
2022,10,15,16,10,24.80
2022,10,15,16,11,24.90
2022,10,15,16,12,24.90
2022,10,15,16,13,24.90
2022,10,15,16,14,24.90
2022,10,15,16,15,24.80
2022,10,15,16,16,24.80
2022,10,15,16,17,24.80
2022,10,15,16,18,24.80
2022,10,15,16,19,24.80
2022,10,15,16,20,24.80
2022,10,15,16,21,24.80
2022,10,15,16,22,24.80
2022,10,15,16,23,24.80
2022,10,15,16,24,24.80
2022,10,15,16,25,24.80
2022,10,15,16,26,24.80
2022,10,15,16,27,24.80
2022,10,15,16,28,24.80
2022,10,15,16,29,24.70
2022,10,15,16,30,24.70
2022,10,15,16,31,24.80
2022,10,15,16,32,24.80
2022,10,15,16,33,24.70
2022,10,15,16,34,24.60
2022,10,15,16,35,24.60
2022,10,15,16,36,24.50
2022,10,15,16,37,24.50
2022,10,15,16,38,24.40
2022,10,15,16,39,24.40
2022,10,15,16,40,24.50
2022,10,15,16,41,24.50
2022,10,15,16,42,24.50
2022,10,15,16,43,24.50
2022,10,15,16,44,24.50
2022,10,15,16,45,24.50
2022,10,15,16,46,24.60
2022,10,15,16,47,24.60
2022,10,15,16,48,24.60
2022,10,15,16,49,24.60
2022,10,15,16,50,24.60
2022,10,15,16,51,24.60
2022,10,15,16,52,24.60
2022,10,15,16,53,24.50
2022,10,15,16,54,24.40
2022,10,15,16,55,24.40
2022,10,15,16,56,24.40
2022,10,15,16,57,24.40
2022,10,15,16,58,24.40
2022,10,15,16,59,24.40
2022,10,15,17,00,24.40
2022,10,15,17,01,24.40
2022,10,15,17,02,24.40
2022,10,15,17,03,24.40
2022,10,15,17,04,24.40
2022,10,15,17,05,24.30
2022,10,15,17,06,24.30
2022,10,15,17,07,24.20
2022,10,15,17,08,24.20
2022,10,15,17,09,24.20
2022,10,15,17,10,24.10
2022,10,15,17,11,24.10
2022,10,15,17,12,24.10
2022,10,15,17,13,24.00
2022,10,15,17,14,24.00
2022,10,15,17,15,24.00
2022,10,15,17,16,23.90
2022,10,15,17,17,23.90
2022,10,15,17,18,23.90
2022,10,15,17,19,23.80